Wind_Speed
30 28 27 25 22 20 19 17 14 13 12 15 18 16 18 17 14 13 16 18 18 18 17 15 16 16 17 18 20 20 18 20 24 29 26 23 18 22 20 17 13 12 12
31 29 26 23 20 19 18 16 14 14 15 14 14 16 16 15 14 16 17 17 16 14 13 14 15 16 18 19 19 19 19 21 24 27 22 20 24 23 17 15 10 10 11
33 31 27 22 18 16 16 15 15 13 13 13 14 16 16 14 16 17 16 15 14 13 13 14 15 16 18 19 19 20 20 21 20 19 21 21 23 17 17 16 15 12 12
36 33 28 22 19 16 17 17 16 14 14 14 15 16 15 15 16 15 13 11 11 12 13 14 15 17 19 21 19 20 16 17 18 19 20 20 20 22 23 26 25 25 27
34 33 28 23 21 19 20 18 17 18 14 14 15 14 14 14 13 11 10 8 9 11 10 12 13 14 17 19 18 17 15 16 18 19 19 22 21 22 27 29 30 30 22
33 31 27 26 26 23 22 20 19 16 15 15 13 12 12 11 11 10 8 9 10 9 10 10 10 11 12 15 16 15 16 18 20 23 22 24 25 25 26 28 27 29 31
36 31 28 28 29 26 24 22 21 17 17 14 11 10 10 8 9 7 9 9 8 9 9 9 9 10 10 12 13 13 13 15 19 21 23 22 24 22 24 25 22 25 28
39 35 31 30 31 28 25 23 20 18 15 12 10 9 8 6 6 7 9 8 6 6 9 8 9 10 12 16 17 15 15 17 17 17 18 20 21 23 20 22 22 26 28
39 35 33 32 33 29 26 24 21 19 16 12 9 7 7 5 7 11 8 7 6 8 8 7 9 12 16 18 18 19 18 17 16 15 15 16 15 13 14 17 19 24 30
38 33 32 33 32 28 26 24 20 18 14 12 8 8 6 5 7 10 7 7 8 9 6 7 10 13 15 18 18 20 21 22 23 19 14 11 10 10 12 16 19 24 26
34 31 31 32 29 26 24 22 22 19 15 12 11 9 6 5 7 9 8 8 9 7 6 7 10 12 15 17 18 19 20 21 21 17 13 12 12 12 13 13 19 23 23
31 29 31 31 29 26 24 24 22 19 14 13 11 8 6 6 7 9 9 8 6 6 7 10 11 14 15 16 17 16 17 18 19 14 13 15 16 18 18 15 16 20 20
30 31 31 30 28 27 25 24 22 17 15 13 10 8 7 7 7 9 8 7 6 6 8 11 12 13 15 16 16 16 17 19 19 15 17 17 19 20 20 19 19 21 20
32 33 31 29 27 26 24 22 19 16 15 13 10 8 8 8 8 9 7 6 6 6 8 10 12 13 15 15 16 16 17 20 19 16 17 17 18 18 20 23 25 28 29
32 32 30 29 29 29 27 22 17 15 13 10 9 9 9 9 9 9 6 6 5 5 7 9 11 13 16 17 19 18 18 18 16 15 18 20 20 21 22 23 25 28 27
33 32 28 30 31 29 26 22 19 16 13 11 10 10 9 9 10 7 5 4 4 5 8 10 13 16 19 22 22 20 19 19 19 17 18 21 21 23 24 23 25 27 28
30 30 29 30 30 29 25 21 19 17 14 10 9 8 8 9 7 6 6 4 4 7 8 10 13 16 20 22 21 20 20 19 18 17 19 21 21 21 24 25 27 28 29
27 25 28 30 30 27 23 19 16 12 9 9 8 7 7 6 6 6 4 4 6 7 9 10 12 16 19 21 21 19 16 16 17 18 19 21 23 23 24 25 27 28 27
27 27 29 29 27 23 21 18 15 13 12 9 8 6 5 4 3 3 3 3 4 6 8 10 12 15 18 20 19 16 15 15 17 18 20 22 22 22 22 23 25 25 28
26 24 27 28 26 24 21 19 18 16 14 11 8 7 4 1 3 4 4 4 4 6 9 10 12 16 18 18 17 15 13 15 17 19 21 20 22 21 22 23 24 25 27
24 25 27 27 26 23 22 20 19 18 14 9 9 6 4 2 5 6 5 3 5 7 8 9 13 16 16 16 15 14 13 14 16 20 22 19 21 23 22 23 25 23 26
25 28 29 28 25 24 20 19 20 18 14 10 11 9 7 5 5 7 5 3 5 6 7 9 13 15 15 14 13 13 13 15 17 20 23 21 21 23 23 25 26 22 26
27 30 30 28 25 22 19 20 19 18 15 11 10 9 9 6 6 7 4 4 5 6 6 9 13 15 14 15 15 15 15 15 17 20 22 22 21 23 24 26 24 24 28
29 30 29 27 24 23 21 21 19 18 15 15 12 11 11 8 6 7 6 6 5 5 5 7 12 14 13 13 14 15 16 16 16 16 18 21 19 22 22 24 25 26 27
30 27 28 25 25 23 22 21 19 18 17 18 16 16 14 11 9 10 10 7 5 5 5 7 11 13 12 12 13 14 15 15 14 14 16 19 18 20 21 25 25 23 22
28 27 26 25 24 23 23 23 22 21 20 20 17 16 13 10 11 12 12 7 4 5 6 6 10 12 11 11 12 14 15 14 12 13 17 18 18 20 23 23 22 23 21
Wind_Direction
225 229 233 236 239 242 243 247 253 259 255 267 283 289 289 294 297 302 309 313 316 317 319 324 330 332 328 328 327 327 331 329 323 326 331 347 354 342 331 328 313 311 306
223 225 228 232 235 237 238 237 241 247 255 267 276 285 288 292 299 305 308 312 316 323 328 334 334 329 331 332 333 335 337 339 333 328 336 352 354 347 343 343 333 333 329
224 224 225 224 227 234 229 223 227 236 247 263 271 283 287 292 301 307 316 320 327 330 334 334 332 333 332 342 344 335 333 334 336 332 339 351 352 352 353 357 4 347 343
226 226 225 224 225 229 210 214 224 240 245 256 269 278 283 293 304 313 319 324 330 333 334 334 339 338 344 347 348 346 353 351 350 356 349 353 354 355 352 351 347 345 339
232 230 225 220 218 214 209 216 229 237 239 254 267 272 283 297 310 317 320 330 332 333 335 342 346 354 358 358 4 6 3 357 358 354 354 346 349 344 342 346 344 341 351
230 228 222 216 214 213 214 216 226 226 238 250 255 265 285 303 319 325 330 336 338 334 340 346 356 10 13 9 11 5 358 359 353 343 344 337 337 337 334 338 341 344 342
231 228 221 216 213 213 216 220 220 225 234 240 243 267 286 309 328 332 335 341 335 337 347 346 4 6 6 7 2 356 351 349 340 333 331 335 333 338 332 337 342 336 331
231 228 223 217 215 213 215 220 218 227 234 229 240 262 280 305 333 343 339 335 333 343 344 346 359 352 347 349 356 355 354 352 349 342 332 329 325 328 326 331 335 328 331
230 226 221 218 215 212 213 215 217 226 218 227 240 255 269 288 344 354 350 340 343 347 345 344 344 343 343 350 352 354 357 359 357 344 335 333 336 337 330 329 331 335 338
229 224 218 216 213 212 213 211 219 215 219 229 234 248 261 290 338 352 351 345 343 335 343 337 332 341 342 344 349 352 353 357 355 356 0 356 353 352 349 350 352 352 348
224 218 213 208 209 211 212 212 213 211 220 224 232 242 255 281 322 347 347 338 329 334 342 337 339 345 349 348 349 348 351 348 351 352 1 2 2 354 350 347 360 3 360
217 209 202 201 201 207 213 206 206 213 219 224 230 241 262 283 305 332 337 332 337 353 345 350 354 357 355 353 349 347 345 343 346 356 1 6 5 5 6 355 349 350 1
202 194 195 196 199 207 207 204 207 212 220 224 228 238 260 268 296 323 330 339 345 344 347 356 357 354 356 353 350 350 348 348 352 359 5 6 3 3 360 356 350 350 354
199 195 193 196 201 202 201 208 211 218 221 219 224 240 255 267 292 313 321 323 324 335 340 348 354 356 358 357 356 355 355 354 355 358 1 357 354 353 356 359 359 357 359
201 198 192 194 198 195 200 205 211 218 221 229 244 251 268 275 285 296 300 300 300 320 336 344 350 357 2 1 4 0 358 357 1 360 357 355 354 354 360 357 1 359 4
200 197 201 195 194 200 204 204 205 203 215 227 241 258 266 265 267 264 267 279 297 330 336 339 350 358 0 0 360 360 0 4 6 2 358 357 356 355 358 357 357 0 1
204 203 201 196 198 202 203 207 206 202 208 226 243 250 245 243 232 230 245 262 308 331 335 340 349 354 357 356 357 358 1 5 3 359 357 357 356 356 356 358 358 358 359
204 214 206 200 202 202 203 203 204 211 216 208 209 224 226 215 202 220 241 277 298 319 331 339 346 349 351 354 355 357 360 1 1 360 356 356 357 357 358 1 360 1 3
207 209 204 203 202 202 200 197 199 195 188 192 191 182 159 154 192 222 261 289 306 321 331 342 346 346 351 353 356 358 1 1 1 360 1 0 358 358 358 0 360 1 0
207 208 203 201 198 197 200 198 195 194 187 182 180 170 171 203 246 257 277 302 334 333 342 353 352 352 354 357 360 1 4 1 3 6 6 7 7 4 359 359 360 357 0
209 203 203 199 199 201 199 201 201 201 196 183 178 189 200 253 257 245 258 308 331 342 358 360 357 356 356 0 2 2 1 3 6 8 8 8 5 4 2 359 355 354 355
214 205 199 198 197 194 198 204 206 206 203 191 190 206 222 237 253 240 248 289 318 350 355 3 357 356 359 4 4 3 1 2 4 5 6 9 5 1 0 359 359 358 359
213 202 199 194 195 196 200 204 208 211 209 207 207 225 237 247 258 233 250 286 316 337 348 359 356 358 1 3 3 359 355 356 359 360 0 4 1 1 4 5 6 2 360
206 200 199 196 199 200 206 206 211 211 217 216 223 231 231 247 244 232 244 271 303 322 322 353 357 358 1 4 2 360 357 357 356 359 356 358 357 1 4 5 2 357 359
201 204 199 201 202 206 207 210 216 217 224 222 227 223 223 222 217 224 239 258 299 319 311 336 350 357 2 4 2 3 2 4 7 6 358 358 357 2 4 358 358 8 19
205 202 205 208 211 211 211 213 217 228 229 221 222 219 228 226 225 228 227 235 291 318 295 325 346 357 2 4 3 7 6 9 10 8 4 9 12 11 6 13 28 29 23
Height
1532 1536 1539 1543 1547 1550 1552 1554 1556 1557 1557 1557 1557 1555 1554 1552 1550 1548 1547 1545 1542 1539 1537 1534 1531 1528 1525 1522 1519 1516 1512 1508 1502 1496 1493 1488 1484 1479 1477 1473 1469 1467 1465
1527 1532 1536 1540 1544 1547 1549 1552 1553 1554 1554 1555 1554 1553 1551 1550 1549 1546 1544 1541 1538 1536 1534 1532 1529 1526 1524 1521 1517 1513 1510 1505 1500 1494 1490 1486 1481 1477 1473 1470 1468 1466 1463
1523 1527 1532 1538 1541 1544 1546 1548 1549 1550 1552 1552 1552 1552 1550 1549 1547 1544 1542 1540 1538 1535 1532 1530 1527 1524 1521 1517 1514 1510 1506 1502 1498 1492 1487 1484 1480 1475 1473 1469 1466 1464 1461
1518 1523 1529 1535 1538 1540 1542 1544 1546 1548 1549 1550 1550 1549 1548 1547 1545 1542 1540 1538 1536 1534 1531 1529 1526 1522 1517 1514 1510 1506 1503 1500 1497 1491 1487 1482 1478 1475 1473 1467 1461 1459 1455
1515 1519 1526 1531 1534 1536 1538 1540 1543 1545 1546 1548 1548 1547 1546 1545 1543 1541 1539 1537 1534 1534 1531 1528 1525 1521 1516 1512 1509 1506 1503 1499 1495 1491 1487 1482 1477 1471 1468 1465 1461 1455 1451
1510 1515 1521 1526 1529 1532 1535 1537 1539 1542 1544 1545 1545 1545 1544 1543 1542 1540 1538 1536 1535 1532 1530 1528 1526 1522 1518 1514 1509 1505 1501 1496 1494 1490 1485 1481 1477 1472 1467 1464 1460 1454 1447
1505 1511 1517 1521 1525 1529 1531 1534 1537 1539 1541 1542 1543 1543 1542 1542 1540 1538 1536 1534 1533 1532 1530 1527 1524 1521 1518 1514 1510 1506 1502 1498 1493 1489 1485 1480 1475 1472 1467 1462 1459 1457 1452
1499 1506 1512 1516 1521 1525 1528 1532 1534 1537 1538 1540 1541 1541 1540 1540 1538 1536 1534 1533 1532 1529 1528 1525 1523 1520 1516 1513 1509 1506 1501 1497 1492 1488 1484 1480 1476 1471 1468 1462 1458 1453 1449
1493 1499 1506 1511 1515 1520 1525 1529 1532 1534 1536 1537 1538 1539 1538 1538 1537 1535 1533 1532 1530 1528 1526 1524 1523 1520 1516 1511 1508 1503 1500 1496 1492 1488 1484 1480 1475 1473 1468 1464 1459 1452 1444
1486 1493 1500 1505 1511 1517 1522 1526 1530 1532 1534 1535 1536 1536 1536 1537 1536 1534 1532 1530 1529 1528 1526 1524 1522 1519 1515 1511 1507 1502 1498 1494 1490 1486 1484 1481 1477 1472 1469 1464 1459 1452 1445
1482 1489 1495 1502 1509 1515 1519 1524 1527 1529 1531 1532 1533 1534 1534 1534 1534 1533 1532 1531 1529 1528 1526 1524 1521 1518 1514 1511 1507 1502 1499 1495 1491 1487 1484 1481 1477 1473 1468 1464 1459 1452 1446
1478 1485 1492 1499 1506 1512 1516 1520 1524 1526 1528 1529 1530 1531 1532 1533 1533 1532 1532 1531 1529 1528 1526 1523 1521 1518 1514 1510 1506 1502 1499 1495 1491 1486 1483 1479 1475 1471 1467 1463 1458 1453 1447
1478 1481 1489 1497 1503 1508 1512 1517 1520 1523 1524 1526 1528 1529 1530 1531 1532 1531 1530 1529 1527 1527 1525 1523 1521 1518 1514 1510 1506 1503 1498 1494 1490 1486 1482 1479 1476 1472 1466 1462 1457 1452 1446
1479 1482 1484 1493 1499 1505 1509 1513 1516 1518 1520 1522 1524 1526 1528 1529 1529 1529 1528 1527 1526 1526 1525 1523 1521 1518 1514 1511 1506 1502 1498 1494 1489 1485 1482 1479 1475 1471 1466 1458 1453 1447 1441
1479 1483 1483 1488 1494 1500 1505 1509 1513 1516 1518 1521 1523 1525 1526 1527 1527 1526 1526 1526 1526 1525 1524 1523 1520 1517 1514 1510 1507 1502 1497 1493 1489 1486 1482 1478 1474 1469 1465 1459 1452 1447 1441
1477 1482 1483 1484 1491 1497 1502 1506 1509 1513 1516 1518 1520 1522 1523 1524 1524 1524 1524 1525 1525 1524 1523 1521 1520 1516 1513 1508 1504 1500 1497 1493 1488 1485 1482 1477 1473 1470 1463 1459 1453 1447 1441
1474 1478 1482 1484 1488 1493 1499 1503 1506 1510 1512 1515 1517 1519 1520 1520 1521 1522 1523 1523 1523 1523 1522 1520 1518 1516 1512 1507 1503 1500 1496 1493 1489 1485 1482 1478 1473 1468 1464 1459 1453 1447 1441
1472 1476 1479 1482 1487 1492 1497 1502 1506 1508 1511 1513 1515 1516 1518 1519 1520 1521 1522 1522 1523 1521 1519 1517 1516 1514 1511 1507 1503 1499 1497 1493 1491 1486 1483 1479 1474 1469 1463 1459 1454 1447 1441
1469 1473 1477 1481 1487 1492 1497 1501 1505 1507 1509 1512 1513 1516 1517 1519 1521 1521 1522 1521 1521 1519 1517 1516 1515 1512 1510 1506 1503 1500 1496 1493 1490 1486 1482 1477 1474 1470 1465 1461 1455 1450 1443
1467 1471 1475 1480 1486 1491 1495 1499 1503 1507 1509 1511 1513 1514 1516 1518 1519 1520 1520 1520 1519 1519 1518 1516 1515 1513 1510 1506 1503 1501 1498 1495 1491 1487 1482 1478 1475 1471 1466 1461 1456 1450 1444
1466 1469 1474 1479 1484 1488 1493 1496 1500 1504 1507 1509 1511 1513 1515 1516 1517 1517 1519 1519 1519 1518 1517 1516 1515 1511 1508 1506 1503 1500 1498 1493 1490 1488 1484 1479 1475 1471 1467 1462 1457 1452 1446
1463 1467 1471 1476 1481 1486 1491 1494 1498 1502 1505 1508 1510 1511 1512 1514 1515 1517 1518 1518 1518 1517 1517 1515 1513 1511 1507 1503 1500 1498 1495 1494 1491 1489 1485 1480 1476 1472 1468 1463 1457 1452 1446
1459 1463 1468 1474 1480 1484 1488 1491 1495 1500 1503 1506 1508 1509 1510 1512 1514 1515 1517 1517 1517 1517 1515 1515 1513 1509 1507 1505 1501 1499 1496 1492 1489 1487 1485 1481 1477 1473 1469 1464 1458 1453 1448
1456 1461 1466 1472 1476 1480 1484 1488 1492 1497 1500 1502 1504 1506 1508 1511 1512 1513 1514 1514 1515 1514 1514 1513 1512 1510 1508 1504 1502 1499 1496 1493 1490 1488 1486 1483 1478 1475 1471 1466 1461 1455 1449
1454 1459 1464 1468 1472 1476 1481 1485 1489 1493 1497 1500 1502 1504 1506 1507 1509 1511 1512 1513 1514 1514 1513 1513 1511 1508 1506 1504 1502 1499 1497 1493 1491 1489 1488 1484 1480 1477 1473 1468 1462 1456 1451
1452 1457 1461 1465 1469 1473 1477 1481 1486 1490 1493 1496 1498 1501 1503 1506 1506 1507 1508 1510 1512 1512 1512 1512 1511 1509 1506 1504 1501 1499 1497 1494 1492 1491 1489 1485 1482 1479 1474 1469 1464 1460 1455